Flag for Australia Weather past 2 weeks in Port Hedland, Western Australia, Australia

Now
64 °F

Clear.


Feels Like: 64 °F
Forecast: 65 / 85 °F
Wind: 8 mph from Southwest

Location: Port Hedland Pardoo

Current Time: Jul 30, 2014 at 11:34:02 PM

Latest Report: Jul 30, 2014 at 10:30 PM


Visibility: N/A

Pressure: 30.04 "Hg

Humidity: 68%

Dew point: 54 °F

Location of Port HedlandLocation

Historic Weather in Port Hedland — Graph

°F

Port Hedland temperature yesterday

Maximum temperature yesterday: 90 °F (at 1:00 PM)
Minimum temperature yesterday: 57 °F (at 6:00 AM)
Average temperature yesterday: 74 °F

Past Weeks' High & Low Weather Summary

 TemperatureHumidityPressure
High90 °F (Jul 29, 1:00 PM)100% (Jul 18, 5:30 AM)30.18 "Hg (Jul 18, 5:30 AM)
Low48 °F (Jul 25, 6:30 AM)11% (Jul 16, 4:00 PM)29.92 "Hg (Jul 22, 2:30 PM)
Average67 °F55%30.05 "Hg
* Reported Jul 15 10:00 PM — Jul 30 10:00 PM, Port Hedland, Weather by CustomWeather, © 2014

Note: Actual official high and low records may vary slightly from our data, if they occured in-between our weather recording intervals... More about our weather records

Advertising

Port Hedland weather history for previous 24 hours

 ConditionsComfort  
Time TempWeatherWind HumidityBarometerVisibility
10:00 PM
Jul 30
66 °FClear.7 mph68%30.04 "HgN/A
9:30 PM64 °FClear.6 mph73%30.04 "HgN/A
9:00 PM68 °FClear.3 mph69%30.04 "HgN/A
8:30 PM68 °FClear.6 mph69%30.04 "HgN/A
8:00 PM68 °FPassing clouds.3 mph73%30.04 "HgN/A
7:30 PM70 °FClear.3 mph64%30.01 "HgN/A
7:00 PM70 °FClear.6 mph64%30.01 "HgN/A
6:30 PM70 °FClear.6 mph64%30.01 "HgN/A
6:00 PM73 °FClear.6 mph57%30.01 "HgN/A
5:30 PM75 °FClear.7 mph50%30.01 "HgN/A
5:00 PM79 °FClear.9 mph39%30.01 "HgN/A
4:30 PM81 °FSunny.10 mph34%29.98 "HgN/A
4:00 PM82 °FSunny.10 mph30%29.98 "HgN/A
3:30 PM86 °FSunny.12 mph24%29.98 "HgN/A
3:00 PM86 °FSunny.13 mph24%29.98 "Hg10 mi
2:30 PM88 °FSunny.9 mph19%30.01 "Hg10 mi
2:00 PM88 °FSunny.12 mph19%30.01 "Hg10 mi
1:30 PM86 °FSunny.12 mph24%30.01 "Hg10 mi
1:00 PM90 °FSunny.13 mph21%30.01 "Hg10 mi
12:30 PM86 °FSunny.12 mph22%30.04 "Hg10 mi
12:00 PM90 °FSunny.15 mph16%30.04 "Hg10 mi
11:30 AM84 °FSunny.12 mph25%30.07 "Hg10 mi
11:00 AM86 °FSunny.14 mph18%30.07 "Hg10 mi
10:30 AM84 °FSunny.17 mph19%30.09 "Hg10 mi
10:00 AM79 °FSunny.16 mph30%30.09 "Hg10 mi
9:30 AM81 °FSunny.15 mph21%30.09 "Hg10 mi
9:00 AM79 °FSunny.20 mph21%30.07 "Hg10 mi
8:30 AM75 °FOvercast.16 mph24%30.07 "HgN/A
8:00 AM73 °FSunny.13 mph27%30.07 "Hg10 mi
7:30 AM72 °FSunny.12 mph31%30.07 "Hg10 mi
7:00 AM70 °FSunny.9 mph33%30.07 "Hg10 mi
6:30 AM68 °FSunny.9 mph35%30.07 "Hg10 mi
6:00 AM66 °FSunny.10 mph40%30.04 "Hg10 mi
5:30 AM68 °FPassing clouds.10 mph35%30.04 "HgN/A
5:00 AM66 °FPassing clouds.8 mph40%30.04 "HgN/A
4:30 AM66 °FPassing clouds.8 mph43%30.04 "HgN/A
4:00 AM64 °FPassing clouds.7 mph46%30.04 "HgN/A
3:30 AM66 °FClear.7 mph43%30.04 "HgN/A
3:00 AM66 °FClear.7 mph46%30.04 "HgN/A
2:30 AM66 °FClear.9 mph43%30.04 "HgN/A
2:00 AM66 °FPassing clouds.9 mph46%30.04 "HgN/A
1:30 AM66 °FPassing clouds.5 mph52%30.04 "HgN/A
1:00 AM68 °FPassing clouds.7 mph43%30.04 "HgN/A
12:30 AM70 °FOvercast.8 mph40%30.04 "HgN/A
12:00 AM70 °FPassing clouds.8 mph40%30.04 "HgN/A
11:30 PM
Jul 29
70 °FPassing clouds.8 mph40%30.04 "HgN/A
11:00 PM68 °FPassing clouds.8 mph46%30.04 "HgN/A
Weather by CustomWeather, © 2014

See weather overviewHow to use our weather pages